FW7205 Weather Reports


time (UTC)temp
C
wind
direction
speed
KPH
gust
KPH
rain 1hr
cm
rain 24hr
cm
rain mn
cm
humidity
%
barometer
mb
20220525142553 16 294 3.2 11.3 0.00 6.43 0.61 95 1009.8
20220525142051 16 300 4.8 11.3 0.00 6.43 0.61 95 1009.8
20220525141607 16 303 4.8 11.3 0.00 6.43 0.61 95 1009.7
20220525141053 16 275 1.6 11.3 0.00 6.43 0.61 95 1009.5
20220525140550 16 277 1.6 9.7 0.00 6.43 0.61 95 1009.5
20220525140102 16 0 1.6 9.7 0.00 6.43 0.61 95 1009.3
20220525135552 16 157 3.2 14.5 0.00 6.43 0.61 95 1009.1
20220525135052 16 281 3.2 14.5 0.00 6.43 0.61 95 1009.0
20220525134603 16 287 3.2 11.3 0.00 6.43 0.61 95 1008.9
20220525134050 16 308 3.2 16.1 0.00 6.43 0.61 95 1008.9
20220525133553 16 98 3.2 16.1 0.00 6.43 0.61 95 1008.9
20220525133104 16 210 3.2 12.9 0.00 6.43 0.61 95 1008.8
20220525132638 16 313 3.2 12.9 0.00 6.43 0.61 95 1008.6
20220525132056 16 305 1.6 8.0 0.00 6.43 0.61 95 1008.3
20220525131558 16 0 0.0 6.4 0.00 6.43 0.61 95 1008.2
20220525131055 16 0 1.6 6.4 0.00 6.43 0.61 95 1008.1
20220525130553 16 0 1.6 8.0 0.00 6.43 0.61 95 1008.0
20220525130105 16 0 0.0 8.0 0.00 6.43 0.61 95 1007.9
20220525125554 16 299 0.0 4.8 0.00 6.45 0.61 95 1007.9
20220525125054 16 298 0.0 4.8 0.00 6.45 0.61 95 1007.7
20220525124559 16 0 0.0 4.8 0.00 6.45 0.61 95 1007.7
20220525124059 16 288 0.0 9.7 0.00 6.45 0.61 95 1007.8
20220525123559 16 0 0.0 11.3 0.00 6.45 0.61 95 1007.6
20220525123101 16 0 1.6 11.3 0.00 6.45 0.61 95 1007.7
20220525122559 16 212 0.0 6.4 0.00 6.45 0.61 95 1007.6
20220525122053 16 161 0.0 6.4 0.00 6.45 0.61 95 1007.7
20220525121559 16 157 0.0 4.8 0.00 6.45 0.61 95 1007.7
20220525121054 16 284 0.0 4.8 0.00 6.45 0.61 95 1007.7
20220525120556 16 0 0.0 6.4 0.00 6.45 0.61 95 1007.6
20220525120059 16 0 0.0 6.4 0.00 6.45 0.61 95 1007.7
20220525115554 16 0 0.0 3.2 0.00 6.45 0.61 95 1007.6
20220525115056 16 0 0.0 3.2 0.00 6.45 0.61 95 1007.5
20220525114558 16 0 0.0 3.2 0.00 6.45 0.61 95 1007.6
20220525114059 16 0 0.0 3.2 0.00 6.45 0.61 95 1007.7
20220525113559 16 0 0.0 3.2 0.00 6.45 0.61 95 1007.6
20220525113057 16 0 0.0 3.2 0.00 6.45 0.61 95 1007.4
20220525112555 16 0 0.0 3.2 0.00 6.45 0.61 95 1007.2
20220525112055 16 0 0.0 3.2 0.00 6.45 0.61 95 1007.0
20220525111603 16 0 0.0 1.6 0.00 6.45 0.61 95 1007.1
20220525111052 16 0 0.0 3.2 0.00 6.45 0.61 95 1007.1
20220525110552 16 0 0.0 6.4 0.00 6.45 0.61 95 1007.0
20220525110101 16 0 0.0 6.4 0.00 6.45 0.61 95 1006.8
20220525105558 16 165 0.0 1.6 0.00 6.45 0.61 95 1006.8
20220525105055 16 0 0.0 3.2 0.00 6.45 0.61 95 1006.8
20220525104558 16 0 0.0 3.2 0.00 6.45 0.61 95 1006.7
20220525104058 16 0 0.0 3.2 0.00 6.45 0.61 95 1006.6
20220525103554 16 0 0.0 3.2 0.00 6.45 0.61 95 1006.4
20220525103101 16 0 0.0 1.6 0.00 6.45 0.61 95 1006.2
20220525102602 16 0 0.0 3.2 0.00 6.45 0.61 95 1006.2
20220525102054 16 165 0.0 3.2 0.00 6.45 0.61 95 1006.2
20220525101601 16 0 0.0 3.2 0.00 6.45 0.61 95 1006.2
20220525101053 16 0 0.0 3.2 0.00 6.45 0.61 95 1006.1
20220525100556 16 0 0.0 1.6 0.00 6.45 0.61 95 1005.9
20220525100100 16 0 0.0 6.4 0.00 6.45 0.61 95 1005.9
20220525095552 16 0 0.0 6.4 0.00 6.45 0.61 95 1005.8
20220525095055 16 165 0.0 3.2 0.00 6.45 0.61 95 1005.7
20220525094605 16 0 0.0 1.6 0.00 6.45 0.61 95 1005.7
20220525094056 16 0 0.0 3.2 0.00 6.45 0.61 95 1005.8
20220525093557 16 0 0.0 3.2 0.00 6.45 0.61 95 1006.0
20220525093114 16 165 0.0 6.4 0.00 6.45 0.61 95 1005.9
20220525092555 16 0 0.0 6.4 0.00 6.45 0.61 95 1006.1
20220525092055 16 0 0.0 6.4 0.00 6.45 0.61 95 1006.4
20220525091608 16 169 0.0 6.4 0.00 6.45 0.61 95 1006.2
20220525091055 16 0 0.0 12.9 0.00 6.45 0.61 95 1006.1
20220525090554 16 0 1.6 12.9 0.03 6.45 0.61 95 1005.7
20220525090109 16 157 3.2 16.1 0.03 6.45 0.61 95 1006.0
20220525085555 16 172 4.8 16.1 0.03 6.45 0.61 95 1006.1
20220525085055 16 142 3.2 9.7 0.03 6.45 0.61 95 1005.6
20220525084603 16 199 3.2 24.1 0.03 6.45 0.61 95 1005.2
20220525084056 16 196 6.4 24.1 0.03 6.45 0.61 95 1003.2
20220525083553 16 47 6.4 17.7 0.03 6.45 0.61 94 1002.3
20220525083101 16 57 4.8 17.7 0.03 6.45 0.61 94 1005.1
20220525082555 16 239 6.4 16.1 0.03 6.45 0.61 94 1005.4
20220525082055 16 155 4.8 14.5 0.03 6.45 0.61 94 1005.0
20220525081603 16 42 4.8 14.5 0.03 6.45 0.61 94 1006.0
20220525081051 16 199 4.8 12.9 0.03 6.45 0.61 95 1006.7
20220525080554 16 113 1.6 6.4 0.00 6.43 0.58 94 1007.0
20220525080108 16 221 1.6 11.3 0.00 6.43 0.58 94 1007.9
20220525075559 16 136 3.2 12.9 0.00 6.43 0.58 94 1008.0
20220525075055 16 214 3.2 12.9 0.00 6.43 0.58 94 1006.6
20220525074601 16 0 0.0 8.0 0.00 6.43 0.58 94 1007.4
20220525074054 16 0 0.0 8.0 0.00 6.43 0.58 95 1006.0
20220525073554 16 0 1.6 8.0 0.03 6.43 0.58 95 1007.6
20220525073102 16 161 0.0 6.4 0.03 6.43 0.58 95 1007.1
20220525072555 16 151 0.0 6.4 0.03 6.43 0.58 94 1006.8
20220525072057 16 94 1.6 6.4 0.05 6.43 0.58 94 1006.6
20220525071608 16 0 0.0 4.8 0.05 6.43 0.58 94 1006.4
20220525071054 16 0 0.0 3.2 0.08 6.43 0.58 94 1006.1
20220525070555 16 0 0.0 4.8 0.10 6.43 0.58 94 1006.3
20220525070108 16 0 0.0 4.8 0.15 6.43 0.58 94 1005.6
20220525065554 16 0 0.0 8.0 0.18 6.43 0.58 94 1005.5
20220525065052 16 0 0.0 11.3 0.23 6.43 0.58 94 1005.6
20220525064606 16 54 4.8 11.3 0.28 6.43 0.58 94 1004.8
20220525064054 16 67 3.2 6.4 0.33 6.43 0.58 94 1004.5
20220525063554 16 52 1.6 6.4 0.36 6.40 0.56 94 1005.5
20220525063106 16 95 1.6 6.4 0.38 6.40 0.56 94 1005.5
20220525062554 16 101 0.0 6.4 0.43 6.40 0.56 94 1006.0
20220525062102 16 101 1.6 6.4 0.46 6.38 0.53 94 1006.4
20220525061607 17 0 1.6 6.4 0.48 6.38 0.53 94 1006.4
20220525061058 17 171 0.0 3.2 0.48 6.35 0.51 94 1006.8
20220525060556 17 0 0.0 1.6 0.48 6.32 0.48 94 1007.6
20220525060106 17 0 0.0 1.6 0.43 6.27 0.43 94 1008.0
20220525055555 17 0 0.0 4.8 0.38 6.22 0.38 94 1008.6
20220525055055 17 0 0.0 6.4 0.36 6.20 0.36 94 1008.8
20220525054604 17 214 0.0 6.4 0.30 6.15 0.30 94 1009.1
20220525054054 17 196 1.6 4.8 0.25 6.10 0.25 94 1009.2
20220525053553 17 192 0.0 3.2 0.23 6.05 0.20 94 1009.4
20220525053100 17 0 0.0 4.8 0.23 5.99 0.18 94 1009.2
20220525052554 17 173 0.0 4.8 0.23 5.94 0.13 94 1009.4
20220525052054 16 260 0.0 4.8 0.23 5.92 0.08 94 1009.4
20220525051602 17 0 0.0 4.8 0.28 5.89 0.05 94 1009.4
20220525051052 16 198 0.0 4.8 0.30 5.87 0.03 94 1009.3
20220525050552 16 147 0.0 3.2 0.33 5.84 0.00 94 1008.9
20220525050101 16 0 0.0 3.2 0.36 5.84 0.00 94 1008.5
20220525045554 16 0 0.0 3.2 0.38 5.84 5.84 94 1007.7
20220525045052 17 0 0.0 3.2 0.41 5.84 5.84 94 1007.7
20220525044601 17 0 0.0 4.8 0.46 5.84 5.84 94 1008.1
20220525044056 17 0 0.0 4.8 0.48 5.84 5.84 94 1008.5
20220525043555 17 68 0.0 3.2 0.46 5.82 5.82 94 1008.7
20220525043059 17 0 0.0 4.8 0.43 5.79 5.79 94 1008.8
20220525042602 17 0 1.6 6.4 0.41 5.74 5.74 93 1008.4
20220525042054 17 78 1.6 6.4 0.38 5.69 5.69 94 1008.5
20220525041556 16 80 0.0 3.2 0.30 5.61 5.61 94 1008.6
20220525041057 16 68 0.0 6.4 0.25 5.56 5.56 93 1008.7
20220525040554 16 86 1.6 6.4 0.20 5.51 5.51 93 1008.7
20220525040110 16 57 3.2 6.4 0.18 5.49 5.49 93 1008.5
20220525035553 16 55 0.0 4.8 0.18 5.46 5.46 93 1008.7
20220525035054 16 0 0.0 3.2 0.15 5.44 5.44 93 1008.9
20220525034601 16 0 0.0 3.2 0.13 5.36 5.36 93 1009.0
20220525034053 16 55 0.0 3.2 0.15 5.33 5.33 93 1008.9
20220525033552 16 55 0.0 3.2 0.20 5.33 5.33 93 1008.9
20220525033113 16 0 0.0 3.2 0.25 5.33 5.33 93 1008.8
20220525032553 16 55 0.0 3.2 0.30 5.31 5.31 93 1008.5
20220525032054 16 55 1.6 3.2 0.41 5.28 5.28 93 1008.6
20220525031609 17 0 0.0 6.4 0.81 5.28 5.28 93 1009.4
20220525031055 17 0 1.6 6.4 1.57 5.28 5.28 93 1009.7
20220525030554 17 71 0.0 4.8 2.29 5.28 5.28 93 1009.4
20220525030112 17 70 1.6 4.8 2.36 5.28 5.28 93 1009.2
20220525025552 17 0 0.0 4.8 2.34 5.28 5.28 93 1009.2
20220525025057 17 69 0.0 3.2 2.36 5.28 5.28 93 1009.3
20220525024604 17 84 1.6 4.8 2.39 5.23 5.23 93 1009.5
20220525024053 17 87 1.6 4.8 2.51 5.21 5.21 92 1009.6
20220525023557 17 66 1.6 4.8 2.90 5.16 5.16 92 1009.8
20220525023107 17 0 1.6 4.8 2.95 5.11 5.11 92 1010.4
20220525022600 17 196 0.0 6.4 2.95 5.03 5.03 92 1010.1
20220525022100 17 309 1.6 11.3 2.82 4.90 4.90 92 1010.4
20220525021611 17 281 1.6 12.9 2.39 4.47 4.47 92 1010.8
20220525021055 17 5 3.2 12.9 1.63 3.71 3.71 92 1010.4
20220525020556 17 279 3.2 12.9 0.94 3.02 3.02 92 1010.7
20220525020107 17 333 3.2 12.9 0.97 2.95 2.95 91 1008.9
20220525015551 17 53 4.8 11.3 1.02 2.95 2.95 91 1007.7
20220525015056 17 98 4.8 11.3 1.02 2.92 2.92 91 1007.8
20220525014605 17 30 4.8 9.7 0.99 2.84 2.84 91 1007.9
20220525014050 17 47 3.2 12.9 0.91 2.64 2.64 90 1007.9
20220525013554 17 78 3.2 12.9 0.89 2.24 2.24 90 1007.8
20220525013110 17 69 3.2 17.7 0.99 2.13 2.13 89 1007.1
20220525012554 17 82 4.8 17.7 1.32 2.08 2.08 89 1007.0
20220525012054 17 112 6.4 16.1 1.91 2.08 2.08 88 1006.9
20220525011608 18 107 4.8 12.9 2.01 2.08 2.08 88 1006.7
20220525011054 18 29 6.4 12.9 2.03 2.08 2.08 87 1006.8
20220525010552 18 24 3.2 14.5 2.03 2.08 2.08 87 1006.7
20220525010110 19 355 4.8 14.5 1.93 1.98 1.98 86 1006.6
20220525005554 19 41 3.2 11.3 1.85 1.91 1.91 85 1007.0
20220525005056 20 92 1.6 8.0 1.85 1.91 1.91 84 1007.3
20220525004603 20 35 1.6 6.4 1.78 1.83 1.83 83 1006.7
20220525004053 20 332 0.0 4.8 1.70 1.75 1.75 83 1006.5
20220525003552 21 267 0.0 9.7 1.27 1.32 1.32 81 1006.4
20220525003113 21 0 1.6 14.5 1.07 1.12 1.12 80 1006.1
20220525002553 22 0 3.2 16.1 0.69 0.74 0.74 78 1006.0
20220525002054 22 325 4.8 22.5 0.10 0.15 0.15 75 1005.9
20220525001609 22 281 6.4 22.5 0.03 0.08 0.08 73 1005.6
20220525001101 23 72 3.2 8.0 0.00 0.05 0.05 72 1005.3
20220525000555 23 355 1.6 8.0 0.00 0.05 0.05 72 1005.3
20220525000115 23 347 3.2 8.0 0.00 0.05 0.05 72 1005.2
20220524235555 23 59 1.6 8.0 0.00 0.05 0.05 72 1005.0
20220524235057 23 82 1.6 8.0 0.00 0.05 0.05 71 1004.7
20220524234615 23 42 3.2 11.3 0.00 0.05 0.05 72 1004.7
20220524234054 23 106 3.2 11.3 0.00 0.05 0.05 72 1004.8
20220524233552 23 103 4.8 11.3 0.00 0.05 0.05 71 1005.0
20220524233112 23 61 4.8 11.3 0.00 0.05 0.05 70 1005.1
20220524232558 24 34 4.8 11.3 0.00 0.05 0.05 70 1005.2
20220524232050 24 42 3.2 12.9 0.00 0.05 0.05 70 1005.0
20220524231625 25 69 3.2 12.9 0.00 0.05 0.05 70 1004.7
20220524231052 25 52 4.8 12.9 0.00 0.05 0.05 69 1004.6
20220524230552 25 342 3.2 12.9 0.00 0.05 0.05 68 1004.6
20220524230107 25 82 4.8 12.9 0.00 0.05 0.05 68 1004.6
20220524225555 25 81 3.2 9.7 0.00 0.05 0.05 68 1004.5
20220524225052 25 11 3.2 16.1 0.00 0.05 0.05 69 1004.7
20220524224602 25 79 3.2 16.1 0.00 0.05 0.05 69 1004.8
20220524224054 25 90 4.8 14.5 0.00 0.05 0.05 67 1004.8
20220524223553 25 9 6.4 14.5 0.00 0.05 0.05 67 1004.7
20220524223111 25 69 3.2 12.9 0.00 0.05 0.05 66 1004.6
20220524222554 25 29 4.8 12.9 0.00 0.05 0.05 66 1004.9
20220524222053 26 63 4.8 14.5 0.00 0.05 0.05 66 1004.9
20220524221603 26 46 4.8 14.5 0.00 0.05 0.05 65 1005.0
20220524221052 25 111 3.2 12.9 0.00 0.05 0.05 66 1005.2
20220524220551 25 5 3.2 12.9 0.00 0.05 0.05 67 1005.3
20220524220112 25 348 3.2 12.9 0.00 0.05 0.05 67 1005.3
20220524215552 25 352 3.2 12.9 0.00 0.05 0.05 66 1005.5
20220524215054 25 10 4.8 9.7 0.00 0.05 0.05 66 1005.8
20220524214605 25 11 1.6 6.4 0.00 0.05 0.05 66 1006.0
20220524214051 25 88 1.6 12.9 0.00 0.05 0.05 67 1006.0
20220524213551 25 14 4.8 12.9 0.00 0.05 0.05 67 1006.1
20220524213112 25 10 3.2 8.0 0.00 0.05 0.05 67 1006.2
20220524212553 25 49 3.2 8.0 0.00 0.05 0.05 68 1006.2
20220524212055 25 28 3.2 12.9 0.00 0.05 0.05 68 1006.3
20220524211607 25 36 3.2 12.9 0.00 0.05 0.05 67 1006.4
20220524211053 25 15 3.2 9.7 0.00 0.05 0.05 66 1006.3
20220524210552 25 13 3.2 9.7 0.00 0.05 0.05 67 1006.4
20220524210107 26 21 1.6 8.0 0.00 0.05 0.05 67 1006.5
20220524205553 25 14 1.6 8.0 0.00 0.05 0.05 69 1006.4
20220524205052 25 13 3.2 8.0 0.00 0.05 0.05 68 1006.6
20220524204616 25 355 1.6 9.7 0.00 0.05 0.05 67 1006.7
20220524204053 25 5 3.2 9.7 0.00 0.05 0.05 67 1006.7
20220524203552 25 89 3.2 9.7 0.00 0.05 0.05 68 1006.7
20220524203123 25 323 3.2 11.3 0.00 0.05 0.05 69 1006.9
20220524202551 24 11 3.2 11.3 0.00 0.05 0.05 70 1006.9
20220524202052 24 346 3.2 12.9 0.00 0.05 0.05 71 1007.0
20220524201609 23 83 4.8 12.9 0.00 0.05 0.05 72 1007.0
20220524201053 23 32 4.8 12.9 0.00 0.05 0.05 71 1007.1
20220524200551 23 83 4.8 12.9 0.00 0.05 0.05 72 1007.1
20220524200121 23 30 3.2 9.7 0.00 0.05 0.05 75 1007.2
20220524195554 22 33 4.8 9.7 0.00 0.05 0.05 74 1007.4
20220524195052 23 89 1.6 14.5 0.00 0.05 0.05 74 1007.7
20220524194612 22 360 3.2 14.5 0.00 0.05 0.05 75 1007.9
20220524194052 22 341 3.2 16.1 0.00 0.05 0.05 77 1007.9
20220524193553 22 360 6.4 16.1 0.00 0.05 0.05 76 1008.1
20220524193058 21 19 4.8 11.3 0.00 0.05 0.05 80 1008.3
20220524192551 21 13 3.2 14.5 0.00 0.05 0.05 83 1008.1
20220524192051 20 347 4.8 14.5 0.00 0.05 0.05 84 1008.5
20220524191559 20 46 3.2 12.9 0.00 0.05 0.05 83 1008.6
20220524191051 20 350 4.8 11.3 0.00 0.05 0.05 84 1008.8
20220524190554 20 14 3.2 8.0 0.00 0.05 0.05 85 1008.7
20220524190107 20 20 3.2 14.5 0.00 0.05 0.05 86 1008.8
20220524185559 20 355 4.8 14.5 0.00 0.05 0.05 86 1008.8
20220524185056 20 29 4.8 11.3 0.00 0.05 0.05 86 1008.8
20220524184609 19 13 3.2 8.0 0.00 0.05 0.05 86 1008.8
20220524184050 19 348 1.6 8.0 0.00 0.05 0.05 86 1008.9
20220524183601 20 32 3.2 9.7 0.00 0.05 0.05 84 1008.9
20220524183109 20 329 3.2 12.9 0.03 0.05 0.05 83 1009.0
20220524182554 20 0 3.2 12.9 0.03 0.05 0.05 83 1008.9
20220524182055 20 13 4.8 12.9 0.03 0.05 0.05 82 1008.8
20220524181603 20 9 3.2 12.9 0.03 0.05 0.05 81 1009.0
20220524181051 21 360 3.2 16.1 0.03 0.05 0.05 79 1009.0
20220524180557 22 28 6.4 16.1 0.03 0.05 0.05 77 1009.1
20220524180110 23 336 4.8 16.1 0.03 0.05 0.05 74 1008.9
20220524175554 25 306 4.8 16.1 0.03 0.05 0.05 76 1009.1
20220524175052 25 0 1.6 6.4 0.03 0.05 0.05 81 1008.6
20220524174608 25 0 1.6 8.0 0.03 0.05 0.05 81 1008.5
20220524174052 25 194 0.0 8.0 0.03 0.05 0.05 84 1008.7
20220524173555 23 0 1.6 8.0 0.03 0.05 0.05 86 1008.8
20220524173107 23 0 1.6 6.4 0.00 0.03 0.03 87 1008.8
20220524172553 23 200 1.6 4.8 0.00 0.03 0.03 85 1008.9
20220524172055 23 178 0.0 8.0 0.00 0.03 0.03 84 1009.0
20220524171607 23 198 1.6 8.0 0.00 0.03 0.03 82 1009.0
20220524171056 23 111 1.6 4.8 0.00 0.03 0.03 81 1009.0
20220524170551 23 218 0.0 4.8 0.00 0.03 0.03 81 1009.0
20220524170054 23 150 0.0 6.4 0.00 0.03 0.03 81 1009.0
20220524165554 23 0 1.6 6.4 0.00 0.03 0.03 82 1008.9
20220524165055 23 80 1.6 6.4 0.00 0.03 0.03 81 1008.9
20220524164602 23 209 3.2 8.0 0.00 0.03 0.03 81 1008.9
20220524164054 23 0 3.2 8.0 0.00 0.03 0.03 81 1008.9
20220524163552 23 175 0.0 12.9 0.00 0.03 0.03 81 1008.9
20220524163102 23 0 1.6 12.9 0.00 0.03 0.03 81 1008.9
20220524162550 23 124 1.6 6.4 0.00 0.03 0.03 81 1008.8
20220524162054 23 209 1.6 6.4 0.00 0.03 0.03 81 1008.8
20220524161557 23 142 1.6 6.4 0.00 0.03 0.03 81 1008.8
20220524161053 23 109 1.6 6.4 0.00 0.03 0.03 81 1008.9
20220524160552 23 165 1.6 12.9 0.00 0.03 0.03 81 1009.0
20220524160106 23 0 3.2 12.9 0.00 0.03 0.03 81 1009.1
20220524155553 23 159 0.0 8.0 0.00 0.05 0.03 81 1009.0
20220524155053 23 114 1.6 9.7 0.00 0.05 0.03 82 1009.0
20220524154613 22 234 1.6 11.3 0.00 0.05 0.03 83 1009.1
20220524154055 22 149 3.2 12.9 0.00 0.05 0.03 83 1009.1
20220524153552 22 207 4.8 12.9 0.00 0.05 0.03 84 1009.0
20220524153105 22 86 3.2 8.0 0.00 0.05 0.03 86 1009.1
20220524152552 21 126 1.6 8.0 0.00 0.05 0.03 87 1009.2
20220524152051 21 0 1.6 8.0 0.00 0.05 0.03 88 1009.1
20220524151601 21 63 1.6 6.4 0.00 0.05 0.03 87 1009.3
20220524151052 21 80 1.6 8.0 0.00 0.05 0.03 87 1009.4
20220524150551 21 191 3.2 9.7 0.00 0.05 0.03 87 1009.4
20220524150058 21 84 1.6 12.9 0.00 0.05 0.03 87 1009.6
20220524145551 21 140 1.6 14.5 0.00 0.05 0.03 88 1009.6
20220524145056 21 169 3.2 14.5 0.00 0.05 0.03 88 1009.7
20220524144605 21 200 1.6 12.9 0.00 0.05 0.03 88 1009.6
20220524144051 21 59 3.2 12.9 0.00 0.05 0.03 89 1009.4
20220524143600 21 49 0.0 9.7 0.00 0.05 0.03 89 1009.4
20220524143109 21 52 1.6 9.7 0.00 0.05 0.03 89 1009.3